Regional Weather Roundup
Issued by NWS Northern Indiana

Home | Current Version | Previous Version | Graphics & Text | Print | Product List | Glossary On
Versions: 1 2 3 4 5 6 7 8 9 10 11 12 13 14 15 16 17 18 19 20 21 22 23 24 25 26 27 28 29 30 31 32 33 34 35 36 37 38 39 40 41 42 43 44 45 46 47 48 49 50
000
ASUS43 KIWX 231900
RWRIWX

KIWX WEATHER ROUNDUP
NATIONAL WEATHER SERVICE NORTHERN INDIANA
300 PM EDT TUE SEP 23 2014

NOTE: "FAIR" INDICATES FEW OR NO CLOUDS BELOW 12,000 FEET WITH NO
SIGNIFICANT WEATHER AND/OR OBSTRUCTIONS TO VISIBILITY.

* THESE STATIONS ARE NOT UNDER NWS QUALITY CONTROL. THEY ALSO MAY NOT
  REPORT WEATHER SUCH AS PRECIPITATION OR FOG.

INZ001>027-232000-
NORTHERN INDIANA

CITY           SKY/WX    TMP DP  RH WIND       PRES   REMARKS
GARY*          MOSUNNY   72  46  40 CALM      30.34F
VALPARAISO     SUNNY     71  48  43 VRB5      30.34F
SOUTH BEND     SUNNY     72  49  44 CALM      30.34F
ELKHART*       SUNNY     70  46  43 W6        30.34F
GOSHEN         SUNNY     70  49  47 CALM      30.33F
ANGOLA*        SUNNY     70  48  46 S5        30.34F
FORT WAYNE     SUNNY     69  51  52 NE3       30.35F
PERU/GRISSOM   SUNNY     69  51  52 VRB2      30.33F

$$
INZ028>050-232000-
CENTRAL INDIANA

CITY           SKY/WX    TMP DP  RH WIND       PRES   REMARKS
LAFAYETTE      SUNNY     69  49  48 VRB6      30.33F
KOKOMO*        SUNNY     72  46  40 N3        30.33F
MUNCIE*        SUNNY     70  43  37 NE5       30.33F
INDIANAPOLIS   SUNNY     69  47  45 E12       30.32F

$$
MIZ043>046-050>051-056>058-064>065-071>073-077>080-232000-
SOUTHWEST LOWER MICHIGAN

CITY           SKY/WX    TMP DP  RH WIND       PRES   REMARKS
BATTLE CREEK   SUNNY     70  50  49 VRB6      30.34F
BENTON HARBOR  SUNNY     65  53  65 W12       30.34F
COLDWATER*     SUNNY     71  49  45 NW3       30.33F
HILLSDALE*     SUNNY     71  47  43 CALM      30.33F
HOLLAND        SUNNY     69  55  60 SW9       30.34F
GRAND RAPIDS   MOSUNNY   72  54  53 W9        30.32F
KALAMAZOO      SUNNY     71  50  47 VRB6      30.34F
STURGIS*         N/A     68  48  49 W3        30.33F
THREE RIVERS*  FAIR      71  53  52 W3        30.33F

$$
OHZ001>008-015>018-024>025-232000-
NORTHWEST OHIO

CITY           SKY/WX    TMP DP  RH WIND       PRES   REMARKS
DEFIANCE       SUNNY    N/A N/A N/A CALM      30.34F
FINDLAY        SUNNY     70  44  39 CALM      30.33F
TOLEDO EXPRESS SUNNY     68  45  43 VRB5      30.34F
TOLEDO METCALF SUNNY     69  45  41 SW3       30.34F
LIMA           SUNNY     69  45  41 S3        30.34F

$$
AND FOR LAKE MICHIGAN COASTAL AND OPEN LAKE BUOY OBSERVATIONS

STATION/POSITION TEMP    WIND        PRES    VSBY  WAVE
                 AIR SEA DIR/SP/G                  HT/PER
                 (F)     (DEG/KT/KT) (MB)    (MI)  (FT/S)
CALUMET HARBOR    69     210/  5/  8 1025.9F
SAINT JOSEPH      65     220/  6/  8 1028.4R
SOUTH LAKE BUOY   61 61  220/ 10/ 10 1027.7R         1/ 3
4 MI NW BRIDGMAN  62 65  270/  8/ 10   N/A           1/ 3
MICHIGAN CITY     64 64  330/  6/  8   N/A           1
SAINT JOSEPH CG                      1028.0      6   0

$$
&&


USA.gov is the U.S. government's official web portal to all federal, state and local government web resources and services.